Tracking 33199 objects as of 16-Feb-2026
HD Live streaming from Space Station
objects crossing your sky now

STARLINK-11399

Track STARLINK-11399 now!
10-day predictions
STARLINK-11399 is classified as:


NORAD ID: 63063
Int'l Code: 2025-035M
Perigee: 362.2 km
Apogee: 364.6 km
Inclination: 43.0 °
Period: 91.7 minutes
Semi major axis: 6734 km
RCS: Unknown
Launch date: February 21, 2025
Source: United States (US)
Launch site: AIR FORCE EASTERN TEST RANGE (AFETR)
Your satellite tracking list
Your tracking list is empty




NASA's NSSDC Master Catalog

Two Line Element Set (TLE):
1 63063U 25035M   26046.68704990  .00129409  00000-0  99267-3 0  9995
2 63063  42.9990 147.6744 0001763 259.4077 100.6592 15.70928605 57768
Source of the keplerian elements: AFSPC